Regional Weather Roundup
Issued by NWS Green Bay, WI

Home | Current Version | Previous Version | Text Only | Print | Product List | Glossary On
Versions: 1 2 3 4 5 6 7 8 9 10 11 12 13 14 15 16 17 18 19 20 21 22 23 24 25 26 27 28 29 30 31 32 33 34 35 36 37 38 39 40 41 42 43 44 45 46 47 48 49 50
000
ASUS43 KGRB 010510
RWRGRB

NORTH-CENTRAL AND NORTHEAST WISCONSIN REGIONAL WEATHER ROUNDUP
NATIONAL WEATHER SERVICE GREEN BAY WI
1200 AM CDT MON SEP 01 2014

WIZ005-009-010>012-018-019-010600-
NORTH CENTRAL WISCONSIN

CITY           SKY/WX    TMP DP  RH WIND       PRES   REMARKS
IRONWOOD       NOT AVBL
MANITOWISH WTR LGT RAIN  70  66  89 S10       29.73F
ARBOR VITAE    CLOUDY    72  67  86 S12       29.74F
EAGLE RIVER    CLOUDY    66  66 100 S7        29.77F
LAND O LAKES   CLOUDY    69  66  90 S10       29.77F
RHINELANDER    LGT RAIN  69  66  90 S12       29.78F
PHILLIPS       CLOUDY    69  64  84 S9        29.71F
ANTIGO         LGT RAIN  66  66  99 S9        29.81F
TOMAHAWK       CLOUDY    68  65  91 CALM      29.76F
MERRILL        CLOUDY    69  69  99 CALM      29.76F
$$

WIZ013-073-010600-
NORTHEAST WISCONSIN

CITY           SKY/WX    TMP DP  RH WIND       PRES   REMARKS
IRON MOUNTAIN  CLOUDY    64  63  96 SE8       29.80F FOG
MARINETTE      PTCLDY    66  63  88 S5        29.81S
OCONTO         MOCLDY    68  67  99 S6        29.81S
$$

WIZ017-030-035>037-045-010600-
CENTRAL WISCONSIN

CITY           SKY/WX    TMP DP  RH WIND       PRES   REMARKS
MEDFORD        TSTM      67  65  93 CALM      29.75F
WAUSAU         LGT RAIN  69  68  96 E7        29.75F
MOSINEE        CLOUDY    68  68 100 E6        29.77F
MARSHFIELD     CLOUDY    72  68  87 SE8       29.74F
WISC RAPIDS    CLOUDY    74  67  78 S8        29.75F
STEVENS POINT  CLOUDY    71  66  83 S6        29.77F
WAUPACA        MOCLDY    72  69  92 SE5       29.78F
SHAWANO        PTCLDY    68  66  92 CALM      29.80F FOG
CLINTONVILLE   PTCLDY    66  64  94 E3        29.78F FOG
$$

WIZ038-039-048-051-010600-
FOX VALLEY

CITY           SKY/WX    TMP DP  RH WIND       PRES   REMARKS
NWS GREEN BAY  CLEAR     68  66  93 S5        29.81S
APPLETON       PTCLDY    70  68  94 S9        29.80F
OSHKOSH        PTCLDY    73  68  84 S14       29.79F
FOND DU LAC    PTCLDY    73  67  81 S15G21    29.80F
$$

WIZ022-050-052-010600-
EAST CENTRAL WISCONSIN

CITY           SKY/WX    TMP DP  RH WIND       PRES   REMARKS
STURGEON BAY   CLOUDY    66  63  88 S9        29.84R
MANITOWOC      CLOUDY    68  68 100 S9        29.83F FOG
SHEBOYGAN      MOCLDY    68  66  93 S6        29.83S FOG
$$

LMZ563-521-522-541>543-010600-
LAKESHORE

STATION/POSITION TIME  TEMP    WIND        PRES    VSBY  WAVE
                       AIR SEA DIR/SP/G                  HT/PER
                 (UTC) (F)     (DEG/KT/KT) (MB)    (MI)  (FT/S)
SHEBOYGAN LKSHOR 0500   69 50  170/ 11/ 12 1010.0R
KEWAUNEE LKSHORE 0500   63     170/  8/  9 1009.5R
TWO RIVERS CG    0400                      1012.4          3
NORTHPORT PIER   0500   66     150/  6/ 10 1010.2S
N MID LAKE BUOY  0500   66 65  160/  8/  8 1010.4R         1
S GREEN BAY BUOY 0500   70     VRB 10/ 12  1010.5S
CHAMBERS ISLAND  0500   66      CALM  /  3 1010.2R
MENOMINEE LKSHOR 0500   67     150/  8/  9 1010.4S
$$



USA.gov is the U.S. government's official web portal to all federal, state and local government web resources and services.